Location: Catacaguana
(10.4120°N, 66.7591°W)
Time: 05:54:24
(UTC+00:00)

ARIANE 5 R/B - Pass Details

Date: 27 May 2022
Orbit: 320 x 33720 km, 4.0° (Epoch: 26 June)

Event Time Altitude Azimuth Distance (km) Brightness Sun altitude
Exits shadow 09:20:20 11° 257° (WSW) 6,311 6.5 -10.7°
Maximum altitude 09:32:09 39° 192° (SSW) 1,331 3.5 -8.1°
Drops below altitude 10° 09:35:21 10° 120° (ESE) 1,724 4.9 -7.4°
Sets 09:36:43 0° 109° (ESE) 2,314 5.8 -7.1°
